Date,TemperatureHighF,TemperatureAvgF,TemperatureLowF,DewpointHighF,DewpointAvgF,DewpointLowF,HumidityHigh,HumidityAvg,HumidityLow,PressureMaxIn,PressureMinIn,WindSpeedMaxMPH,WindSpeedAvgMPH,GustSpeedMaxMPH,PrecipitationSumIn
2013-3-1,62.0,56.1,51.0,54.0,45.9,41.0,94,70,51,30.03,29.93,11,6,17,0.00
2013-3-2,58.0,52.2,44.0,45.0,41.3,38.0,90,67,52,30.07,29.98,14,6,25,0.00
2013-3-3,55.0,46.5,38.0,44.0,37.9,33.0,95,73,53,30.17,30.00,18,7,29,0.00
2013-3-4,69.0,51.4,38.0,47.0,36.9,30.0,97,64,26,30.23,30.12,9,3,17,0.00
2013-3-5,77.0,59.3,44.0,60.0,49.1,41.0,100,73,35,30.17,30.05,9,5,17,0.00
2013-3-6,68.0,59.3,48.0,64.0,48.2,34.0,100,71,29,30.14,29.97,16,9,29,0.00
2013-3-7,68.0,53.1,40.0,47.0,40.5,36.0,93,66,34,30.22,30.11,12,5,20,0.00
2013-3-8,77.0,59.0,44.0,52.0,43.9,29.0,100,66,17,30.23,30.11,8,4,17,0.00
2013-3-9,77.0,62.9,50.0,54.0,51.1,47.0,100,70,38,30.22,30.13,9,5,13,0.00
2013-3-10,83.0,67.1,55.0,58.0,55.8,53.0,100,71,36,30.18,30.06,13,6,21,0.00
2013-3-11,79.0,67.7,58.0,62.0,58.8,57.0,100,76,48,30.12,29.93,18,6,27,0.00
2013-3-12,69.0,64.9,56.0,69.0,63.4,56.0,100,95,81,30.03,29.90,12,8,20,0.00
2013-3-13,75.0,61.0,49.0,56.0,45.9,36.0,100,66,24,30.19,24.77,13,7,22,0.00
2013-3-14,70.0,56.7,46.0,49.0,39.2,29.0,100,58,22,30.27,30.16,12,6,21,0.00
2013-3-15,73.0,56.8,41.0,51.0,42.2,34.0,100,65,29,30.30,30.16,11,4,19,0.00
2013-3-16,79.0,60.9,45.0,56.0,47.7,41.0,100,68,26,30.21,30.07,9,3,15,0.00
2013-3-17,76.0,63.9,50.0,62.0,55.5,50.0,100,77,48,30.15,30.02,10,3,18,0.00
2013-3-18,78.0,67.4,60.0,71.0,64.6,60.0,100,92,63,30.07,29.92,11,4,21,0.00
2013-3-19,85.0,71.8,62.0,71.0,64.3,59.0,100,81,44,30.03,29.90,11,3,18,0.00
2013-3-20,74.0,67.4,62.0,70.0,64.4,59.0,100,91,63,29.98,29.82,15,5,29,0.00
2013-3-21,72.0,60.9,50.0,62.0,44.5,32.0,100,62,23,29.99,29.88,10,6,17,0.00
2013-3-22,77.0,61.2,45.0,70.0,54.5,41.0,100,81,40,30.01,29.90,10,4,17,0.00
2013-3-23,85.0,72.9,64.0,77.0,68.4,64.0,100,88,56,29.99,29.80,13,6,21,0.00
2013-3-24,81.0,74.7,71.0,77.0,72.6,69.0,100,94,69,29.86,29.67,16,9,30,0.00
2013-3-25,72.0,64.8,54.0,71.0,50.9,35.0,100,67,27,30.05,29.77,13,8,23,0.00
2013-3-26,60.0,53.1,46.0,49.0,38.5,30.0,86,59,39,30.25,30.05,16,10,27,0.00
2013-3-27,64.0,50.3,39.0,42.0,37.1,31.0,95,64,31,30.32,30.21,9,6,19,0.00
2013-3-28,72.0,56.1,42.0,47.0,39.1,28.0,100,62,21,30.31,30.19,8,4,22,0.00
2013-3-29,76.0,60.7,45.0,54.0,42.9,32.0,100,60,20,30.34,30.20,9,3,15,0.00
2013-3-30,78.0,63.8,50.0,58.0,51.9,47.0,100,70,37,30.27,30.13,9,4,16,0.00
2013-3-31,81.0,67.9,55.0,61.0,54.7,-99.9,100,69,36,30.19,30.01,8,4,18,0.00